User: anonymous   Login
Location: Lake Arresoe
(56.0000°N, 12.5000°E)
Time: 22:00:15
(UTC+01:00)
Language:

FENGYUN 1C DEB - Orbit

View from above orbital plane
View from above orbital plane
View from above satellite
View from above satellite

Ground track
Ground track

The orbit data is extracted from the following two-line orbital elements,

1 30193U 99025VA  22024.50924561  .00000481  00000-0  15961-3 0  9991
2 30193  98.9031 227.3890 0125704  38.6383  21.8817 14.38235190787206
Epoch (UTC): 24 January 2022 12:13:18
Eccentricity: 0.0125704
inclination: 98.9031°
perigee height: 674 km
apogee height: 854 km
right ascension of ascending node: 227.3890°
argument of perigee: 38.6383°
revolutions per day: 14.38235190
mean anomaly at epoch: 21.8817°
orbit number at epoch: 78720

The dashed part of the orbit path shows where the satellite is in the earth's shadow,  

DLR